Wind_Speed
42 42 42 41 42 43 44 44 46 47 45 42 40 43 45 42 41 40 37 35 33 29 27 27 25 25 24 24 22 21 21 21 20 19 17 16 16 18 19 19 19 18 17
40 39 37 37 38 40 41 40 41 42 40 35 29 25 26 32 39 43 43 41 36 32 31 31 30 29 28 28 26 25 25 25 25 25 23 21 19 17 18 21 21 21 20
38 36 34 35 36 36 36 36 34 32 31 30 28 25 22 21 24 33 39 43 41 36 33 33 32 32 31 31 31 29 29 29 29 28 28 27 24 22 20 20 22 24 24
35 32 31 32 33 34 36 36 36 36 35 34 32 29 25 24 25 29 34 39 42 39 36 34 32 32 32 31 31 32 32 33 33 32 31 30 29 27 24 23 23 25 27
30 30 29 30 31 34 35 36 36 37 37 36 35 33 30 27 27 28 28 31 36 37 37 36 34 34 33 33 33 33 35 36 37 36 35 34 32 32 30 27 26 26 27
25 26 27 28 30 33 35 37 38 38 37 35 34 32 30 29 30 30 28 26 29 32 36 38 37 36 35 34 35 35 35 37 38 39 39 38 36 34 34 32 29 27 27
19 20 22 24 27 31 33 36 39 39 38 35 33 29 28 29 30 31 32 32 32 33 35 37 37 37 36 34 34 35 36 38 40 41 41 40 39 38 36 35 33 30 28
14 15 17 21 24 28 31 35 38 40 40 38 36 33 30 29 30 30 33 35 35 37 38 38 38 38 36 34 33 36 38 39 41 42 41 39 39 40 39 38 37 34 30
15 16 17 20 24 27 31 34 37 38 39 39 39 38 34 31 31 30 31 34 35 35 35 36 36 36 35 35 35 37 40 41 41 41 42 41 40 41 42 41 40 37 33
18 18 19 21 24 27 31 34 36 38 39 39 39 39 37 34 33 32 31 31 32 33 33 34 35 35 36 37 38 38 39 39 39 40 41 42 42 42 43 43 42 40 36
22 20 21 23 25 29 32 32 33 35 37 37 38 38 38 37 35 33 31 31 32 33 35 35 35 35 36 38 39 37 36 35 36 38 38 39 39 39 42 44 44 43 40
24 21 22 24 26 29 32 33 32 32 33 34 35 36 38 38 37 35 33 33 33 34 37 38 38 37 38 39 39 37 36 35 36 36 36 36 37 37 40 43 46 45 42
25 22 23 25 27 29 32 34 34 32 31 31 32 34 36 38 39 37 35 34 35 35 37 39 39 39 38 38 38 37 36 34 34 35 35 36 36 37 37 40 44 46 44
27 24 24 25 26 28 31 34 35 33 31 30 30 32 35 36 38 38 37 35 36 35 35 35 37 37 37 36 36 36 35 35 35 35 34 35 34 34 35 37 40 43 43
26 24 24 25 25 27 30 33 34 32 30 30 29 30 33 35 36 37 37 35 35 34 33 34 35 36 36 36 35 34 34 33 32 31 29 28 27 29 34 39 41 42 42
27 25 24 24 25 27 29 31 34 33 30 28 27 28 29 32 33 34 35 35 35 34 34 34 36 36 36 36 34 33 31 29 27 26 25 24 23 24 29 37 42 44 43
29 29 28 27 27 28 30 30 33 33 31 29 27 26 27 27 29 31 33 34 35 35 36 36 38 38 37 35 33 32 31 28 27 26 24 23 23 23 25 30 37 41 42
34 35 35 33 31 31 31 30 31 33 32 29 26 25 24 25 26 28 30 32 33 34 35 37 39 38 36 33 32 31 30 29 28 26 25 23 23 23 24 26 31 39 41
40 39 39 37 34 32 31 30 31 32 31 29 26 24 21 20 21 23 25 27 29 31 33 36 37 36 33 29 28 28 27 27 26 25 24 23 22 22 23 23 24 28 34
44 44 43 40 36 34 32 30 30 31 30 28 25 22 19 16 16 17 18 20 24 28 31 34 34 34 31 28 26 26 26 25 23 22 20 19 18 17 17 18 19 21 23
52 50 47 43 40 38 35 32 30 30 29 27 24 21 17 13 12 13 14 15 19 23 27 30 32 31 28 27 26 24 22 21 18 16 16 16 16 17 18 20 21 22 24
63 56 49 45 43 42 38 35 32 30 29 27 24 21 18 14 12 12 13 14 16 17 20 24 27 27 26 25 23 21 19 18 16 15 15 15 16 18 19 21 22 23 25
69 61 53 48 46 43 41 38 34 31 30 28 25 22 19 15 14 13 14 16 19 21 23 24 25 25 24 22 20 19 18 17 15 15 15 15 16 17 18 19 21 22 24
69 64 58 51 47 45 44 41 38 34 31 29 26 23 19 16 14 15 16 18 20 24 27 26 24 22 20 19 19 18 17 15 14 13 14 14 14 15 16 18 20 21 23
65 61 58 52 49 48 46 43 40 37 34 32 28 24 21 17 14 15 17 18 20 22 25 25 23 21 20 19 18 17 15 13 13 13 13 13 13 13 14 16 18 20 22
57 56 53 49 48 47 46 43 41 39 36 33 30 26 23 19 16 16 17 18 20 22 23 23 22 21 20 19 16 14 13 12 11 10 10 10 10 11 12 15 16 18 20
Wind_Direction
279 279 279 279 279 278 278 279 278 275 272 270 273 275 269 257 252 255 256 255 253 249 246 248 248 248 250 253 254 254 251 246 246 245 244 245 245 245 244 244 243 243 244
281 282 282 280 279 279 280 283 284 279 276 274 279 292 287 269 256 254 255 255 252 249 247 248 250 250 251 252 252 253 253 249 247 247 246 246 245 245 245 245 244 244 244
281 282 282 281 280 280 282 283 284 282 280 278 282 289 288 281 270 263 260 258 252 248 246 247 248 249 251 254 252 253 255 253 249 247 246 247 247 246 245 246 245 244 244
282 285 286 285 285 285 287 287 285 284 284 283 282 282 282 278 274 270 266 259 253 250 247 246 245 247 251 253 252 252 254 255 253 249 246 246 246 246 246 245 245 244 243
283 287 290 292 292 291 290 289 286 284 283 283 281 279 278 272 268 268 269 260 252 249 249 246 243 243 246 249 252 253 254 254 253 251 250 249 247 246 246 246 245 244 244
288 291 294 296 296 295 294 291 288 286 284 282 279 278 275 270 264 260 259 255 250 250 251 250 247 246 245 247 249 252 254 253 252 250 251 251 249 244 243 244 245 244 244
290 294 296 297 296 294 291 287 284 282 280 278 275 273 272 270 265 261 256 252 250 249 248 248 249 250 250 250 249 250 253 252 251 250 251 252 250 245 242 241 243 244 244
295 299 301 303 303 301 295 288 283 278 275 272 271 269 268 269 268 264 259 254 252 251 250 251 250 251 253 254 253 252 254 254 251 251 251 252 251 248 244 241 241 243 244
296 301 309 314 316 314 308 298 288 281 275 270 268 267 265 265 266 264 261 257 253 252 253 254 254 253 254 258 261 261 259 257 255 252 252 254 253 250 245 241 239 240 243
293 299 308 318 323 324 320 308 295 286 279 273 269 267 265 262 263 264 262 257 253 253 255 256 255 254 256 260 264 265 261 258 257 254 253 255 256 254 248 242 237 237 240
288 297 306 315 324 328 326 318 303 291 284 278 271 267 265 262 261 260 260 258 256 255 256 255 255 257 260 262 262 262 260 258 257 255 253 255 258 258 253 244 236 233 235
285 295 303 311 321 327 329 325 313 298 288 282 274 268 264 262 260 259 257 257 258 258 258 258 258 260 261 261 259 258 259 259 257 255 255 256 259 260 256 246 236 230 231
281 290 303 309 317 326 330 328 320 307 296 287 277 268 263 261 259 259 257 255 256 258 259 260 261 261 261 259 256 255 257 257 258 258 258 258 260 262 257 245 234 229 228
283 292 303 309 313 320 326 328 323 314 304 294 283 271 263 260 259 258 257 256 257 261 264 263 262 261 259 257 255 254 255 257 258 259 259 260 262 260 252 239 228 226 227
288 296 303 306 310 316 321 324 323 318 311 300 289 276 267 261 260 258 257 257 258 260 263 263 261 260 258 254 252 253 255 257 256 255 257 260 262 258 250 237 226 222 224
287 295 300 302 306 311 317 321 322 318 314 308 297 285 274 265 260 258 257 256 257 258 259 260 259 258 255 250 248 248 247 247 246 247 254 259 259 258 254 244 231 224 224
287 293 296 295 299 305 311 316 319 318 314 311 303 291 278 268 260 257 258 258 257 256 256 255 254 252 249 246 243 241 240 242 245 252 256 258 257 255 253 250 240 231 229
286 295 297 295 294 298 305 310 314 315 314 312 307 298 285 272 263 259 259 259 258 256 251 247 247 246 244 242 238 235 237 243 248 252 255 256 255 253 249 248 245 240 237
281 291 294 293 291 294 301 305 308 310 311 311 309 305 294 278 265 260 259 256 252 247 241 239 240 238 235 229 227 228 235 242 249 254 255 254 254 255 254 253 251 248 245
278 286 290 289 288 292 297 301 303 304 305 306 306 306 300 286 270 262 259 254 247 242 237 234 230 228 222 219 223 231 239 246 249 250 250 249 248 249 251 254 254 255 256
279 281 283 283 284 288 291 294 296 297 297 298 300 302 300 290 278 272 262 253 242 235 230 225 219 217 212 216 224 230 234 237 238 241 243 244 247 249 252 253 254 256 258
277 277 277 277 278 281 283 285 286 287 288 288 290 294 296 291 279 271 261 249 239 229 217 212 210 209 208 212 217 221 225 227 232 237 241 245 248 251 253 255 257 258 259
273 272 271 271 271 272 275 276 277 277 278 278 280 284 285 283 272 262 255 246 241 235 227 221 216 210 205 205 208 215 221 225 229 237 242 246 250 256 261 266 270 272 272
268 267 265 264 263 264 266 267 268 268 267 266 268 271 274 270 264 258 253 248 244 236 229 222 214 204 203 207 210 214 217 220 225 233 242 250 256 264 272 277 281 282 283
261 259 258 256 255 256 257 258 259 259 258 257 257 260 263 258 255 252 248 243 238 232 225 217 208 203 205 206 209 211 213 217 224 235 245 256 266 276 283 288 291 292 292
247 246 245 243 244 246 247 248 250 250 250 249 249 250 253 250 242 237 234 231 230 226 220 213 206 201 200 202 205 210 216 224 231 242 254 266 278 288 294 297 298 299 299
Height
5873 5871 5870 5868 5866 5864 5861 5859 5859 5857 5858 5859 5859 5858 5856 5856 5859 5860 5861 5861 5862 5863 5864 5864 5866 5867 5868 5869 5870 5870 5871 5872 5873 5874 5875 5876 5876 5877 5878 5879 5880 5881 5881
5864 5862 5861 5859 5857 5855 5852 5851 5849 5847 5848 5850 5852 5849 5847 5846 5848 5850 5852 5853 5854 5855 5857 5858 5860 5861 5862 5863 5864 5865 5866 5867 5868 5870 5871 5872 5872 5873 5874 5875 5876 5877 5877
5856 5855 5853 5851 5849 5847 5845 5843 5841 5840 5841 5842 5843 5843 5842 5840 5840 5842 5842 5843 5845 5846 5848 5850 5852 5854 5856 5856 5858 5859 5859 5861 5862 5863 5865 5866 5868 5869 5870 5870 5872 5873 5873
5849 5847 5845 5843 5841 5839 5838 5836 5834 5833 5833 5834 5835 5835 5835 5834 5834 5834 5833 5833 5835 5837 5839 5842 5844 5846 5848 5849 5850 5851 5852 5853 5854 5856 5857 5859 5861 5863 5865 5866 5866 5867 5869
5842 5841 5839 5837 5835 5833 5831 5829 5828 5826 5826 5825 5825 5826 5826 5826 5826 5826 5825 5824 5826 5828 5830 5833 5835 5837 5840 5842 5843 5843 5844 5845 5846 5848 5849 5851 5853 5856 5858 5860 5861 5862 5863
5837 5835 5833 5831 5829 5826 5824 5822 5820 5818 5817 5817 5816 5817 5817 5818 5819 5818 5818 5817 5819 5821 5822 5823 5825 5828 5830 5833 5834 5835 5835 5836 5838 5839 5840 5842 5845 5847 5850 5853 5855 5856 5858
5831 5830 5827 5825 5822 5820 5817 5814 5812 5810 5809 5808 5808 5809 5810 5810 5811 5811 5811 5811 5812 5813 5814 5815 5816 5818 5821 5823 5825 5827 5827 5827 5829 5830 5831 5833 5835 5838 5841 5845 5847 5850 5852
5826 5823 5821 5819 5816 5812 5810 5807 5804 5802 5801 5800 5800 5800 5802 5803 5803 5803 5802 5803 5804 5804 5806 5807 5808 5810 5812 5814 5816 5818 5818 5818 5820 5822 5823 5824 5826 5829 5832 5836 5839 5842 5844
5820 5818 5815 5813 5809 5806 5802 5799 5795 5793 5793 5792 5791 5792 5793 5795 5794 5794 5794 5795 5796 5797 5798 5799 5801 5803 5804 5805 5807 5808 5809 5810 5811 5813 5815 5816 5817 5819 5822 5826 5830 5833 5837
5814 5811 5809 5807 5804 5800 5796 5791 5787 5784 5782 5782 5782 5782 5784 5785 5786 5786 5787 5788 5788 5789 5790 5791 5793 5795 5797 5798 5799 5799 5800 5801 5802 5803 5805 5807 5808 5810 5812 5815 5820 5824 5828
5807 5804 5802 5799 5796 5793 5788 5783 5778 5775 5772 5771 5771 5772 5773 5774 5775 5777 5778 5780 5781 5782 5782 5783 5785 5786 5788 5789 5790 5790 5791 5792 5793 5794 5795 5797 5798 5800 5802 5805 5809 5814 5819
5800 5797 5795 5792 5788 5785 5780 5775 5770 5767 5764 5762 5761 5761 5762 5764 5766 5767 5770 5772 5772 5773 5774 5774 5775 5777 5778 5779 5780 5781 5782 5783 5784 5785 5786 5788 5789 5790 5792 5794 5799 5804 5809
5793 5790 5787 5784 5780 5776 5772 5768 5763 5759 5756 5754 5752 5752 5752 5754 5756 5758 5760 5763 5764 5764 5765 5765 5767 5768 5769 5770 5771 5773 5774 5774 5775 5777 5778 5780 5781 5782 5782 5784 5788 5793 5799
5784 5782 5779 5775 5772 5769 5766 5761 5757 5752 5749 5746 5744 5743 5742 5744 5746 5749 5751 5753 5755 5756 5756 5757 5758 5759 5760 5761 5762 5764 5766 5766 5768 5769 5770 5771 5772 5773 5774 5775 5779 5783 5789
5774 5772 5769 5767 5764 5762 5759 5755 5750 5746 5742 5739 5736 5734 5733 5734 5736 5739 5741 5744 5746 5747 5749 5749 5750 5751 5752 5753 5755 5756 5758 5759 5761 5762 5763 5764 5765 5766 5767 5768 5770 5774 5779
5765 5762 5760 5758 5756 5754 5751 5747 5743 5739 5736 5732 5729 5726 5724 5724 5725 5728 5731 5734 5736 5738 5740 5741 5742 5743 5743 5745 5747 5748 5751 5753 5754 5755 5756 5757 5758 5759 5760 5762 5764 5766 5770
5754 5752 5750 5748 5747 5745 5743 5740 5737 5733 5729 5725 5722 5719 5716 5715 5716 5718 5721 5723 5726 5728 5730 5732 5732 5733 5734 5736 5739 5741 5744 5746 5747 5749 5750 5751 5752 5752 5754 5756 5758 5760 5763
5741 5741 5740 5739 5737 5736 5734 5732 5729 5727 5723 5719 5715 5712 5709 5707 5707 5708 5711 5714 5716 5718 5720 5721 5722 5724 5726 5729 5731 5735 5738 5740 5741 5742 5744 5745 5746 5747 5748 5749 5752 5755 5757
5729 5729 5729 5729 5728 5727 5725 5723 5722 5720 5717 5713 5709 5705 5702 5700 5700 5701 5703 5705 5706 5708 5709 5712 5714 5717 5719 5722 5725 5728 5731 5734 5735 5736 5738 5739 5740 5741 5743 5745 5747 5748 5751
5715 5716 5717 5718 5718 5717 5716 5714 5714 5713 5710 5707 5703 5700 5697 5695 5695 5695 5697 5697 5698 5698 5700 5703 5706 5709 5712 5716 5719 5722 5725 5727 5729 5731 5732 5734 5735 5737 5739 5741 5742 5744 5745
5699 5701 5703 5705 5706 5706 5706 5705 5705 5705 5704 5702 5698 5695 5692 5691 5690 5691 5692 5692 5693 5693 5693 5695 5699 5702 5706 5710 5713 5717 5719 5722 5724 5726 5728 5729 5731 5733 5734 5736 5737 5738 5740
5682 5685 5688 5691 5693 5695 5695 5695 5695 5696 5696 5695 5693 5690 5688 5686 5686 5687 5688 5689 5690 5691 5691 5693 5695 5698 5700 5704 5708 5712 5715 5718 5720 5722 5724 5725 5726 5727 5729 5730 5731 5732 5733
5661 5666 5671 5675 5678 5681 5683 5684 5684 5686 5687 5688 5686 5684 5683 5682 5681 5682 5684 5685 5687 5688 5689 5691 5692 5694 5697 5701 5704 5708 5711 5714 5716 5718 5720 5720 5720 5721 5722 5722 5723 5724 5725
5638 5645 5652 5658 5662 5666 5669 5672 5673 5674 5677 5679 5680 5678 5677 5676 5676 5677 5679 5681 5683 5684 5685 5686 5688 5691 5695 5699 5702 5705 5708 5710 5712 5714 5715 5716 5715 5716 5716 5717 5717 5717 5717
5613 5621 5630 5638 5645 5649 5654 5658 5661 5663 5666 5670 5671 5671 5671 5671 5671 5672 5674 5676 5678 5680 5681 5683 5685 5689 5693 5697 5700 5703 5705 5707 5708 5710 5711 5711 5710 5710 5711 5711 5711 5710 5710
5586 5596 5607 5618 5626 5632 5637 5642 5647 5651 5655 5659 5662 5663 5664 5666 5667 5667 5669 5672 5674 5676 5678 5680 5683 5686 5690 5693 5696 5699 5701 5703 5704 5705 5706 5706 5706 5706 5706 5706 5705 5705 5704